Location: Chervonnoye
(48.6000°N, 34.4000°E)
Time: 18:49:52
(UTC+00:00)

Dragsphere 1 - Visible Passes

Search period start: 22 June 2021 00:00
Search period end: 02 July 2021 00:00
Orbit: 965 x 1008 km, 90.2° (Epoch: 22 June)

Date Brightness Start Highest point End Pass type
(mag) Time Alt. Az. Time Alt. Az. Time Alt. Az.
22 Jun ? 18:30:16 10° N 18:36:15 49° W 18:42:14 10° SSW visible
23 Jun ? 18:59:15 10° NNW 19:04:30 29° WNW 19:09:48 10° SW visible
24 Jun ? 19:28:39 10° NNW 19:32:36 18° WNW 19:36:34 10° WSW visible
26 Jun ? 18:40:06 10° NNW 18:45:34 33° WNW 18:51:06 10° SW visible
27 Jun ? 19:09:22 10° NNW 19:13:43 20° WNW 19:18:05 10° WSW visible
28 Jun ? 19:39:40 10° NW 19:41:40 12° WNW 19:43:40 10° W visible
29 Jun ? 18:20:57 10° NNW 18:26:39 37° WNW 18:32:21 10° SW visible
30 Jun ? 18:50:07 10° NNW 18:54:49 23° WNW 18:59:31 10° WSW visible
01 Jul ? 19:20:01 10° NW 19:22:48 13° WNW 19:25:37 10° W visible
